Location: Atherton
(17.2661°S, 145.4859°E)
Time: 22:41:31
(UTC+10:00)

Transit 2A - Pass Details

Date: 22 June 2025
Orbit: 598 x 948 km, 66.7° (Epoch: 19 July)

Event Time Altitude Azimuth Distance (km) Brightness Sun altitude
Rises 22:09:07 0° 228° (SW) 3,300 - -58.7°
Reaches altitude 10° 22:12:37 10° 250° (WSW) 2,283 - -59.5°
Maximum altitude 22:15:31 15° 284° (WNW) 1,884 - -60.2°
Drops below altitude 10° 22:18:16 10° 319° (NW) 2,143 - -60.8°
Sets 22:21:25 0° 342° (NNW) 2,983 - -61.5°
